Time,TemperatureF,DewpointF,PressureIn,WindDirection,WindDirectionDegrees,WindSpeedMPH,WindSpeedGustMPH,Humidity,HourlyPrecipIn,Conditions,Clouds,dailyrainin,SolarRadiationWatts/m^2,SoftwareType,DateUTC
2013-04-18 00:12:00,13.0,8.0,-100.00,West,276,9.0,16.0,80,0.00,,,0.02,0.000000,,2013-04-18 06:12:00,
2013-04-18 00:22:00,13.0,8.0,-100.00,West,276,9.0,16.0,80,0.00,,,0.02,0.000000,,2013-04-18 06:22:00,
2013-04-18 00:32:00,13.0,8.0,-100.00,West,276,9.0,16.0,80,0.00,,,0.02,0.000000,,2013-04-18 06:32:00,
2013-04-18 00:42:00,13.0,8.0,-100.00,West,276,9.0,16.0,80,0.00,,,0.02,0.000000,,2013-04-18 06:42:00,
2013-04-18 01:12:00,13.0,7.0,-100.00,West,279,11.0,20.0,77,0.00,,,0.02,0.000000,,2013-04-18 07:12:00,
2013-04-18 01:22:00,13.0,7.0,-100.00,West,279,11.0,20.0,77,0.00,,,0.02,0.000000,,2013-04-18 07:22:00,
2013-04-18 01:32:00,13.0,7.0,-100.00,West,279,11.0,20.0,77,0.00,,,0.02,0.000000,,2013-04-18 07:32:00,
2013-04-18 01:42:00,13.0,7.0,-100.00,West,279,11.0,20.0,77,0.00,,,0.02,0.000000,,2013-04-18 07:42:00,
2013-04-18 02:12:00,11.0,6.0,-100.00,West,277,13.0,24.0,81,0.00,,,-99.99,0.000000,,2013-04-18 08:12:00,
2013-04-18 02:22:00,11.0,6.0,-100.00,West,277,13.0,24.0,81,0.00,,,-99.99,0.000000,,2013-04-18 08:22:00,
2013-04-18 02:32:00,11.0,6.0,-100.00,West,277,13.0,24.0,81,0.00,,,-99.99,0.000000,,2013-04-18 08:32:00,
2013-04-18 02:42:00,11.0,6.0,-100.00,West,277,13.0,24.0,81,0.00,,,-99.99,0.000000,,2013-04-18 08:42:00,
2013-04-18 03:12:00,11.0,6.0,-100.00,West,276,15.0,27.0,78,0.00,,,0.02,0.000000,,2013-04-18 09:12:00,
2013-04-18 03:22:00,11.0,6.0,-100.00,West,276,15.0,27.0,78,0.00,,,0.02,0.000000,,2013-04-18 09:22:00,
2013-04-18 03:32:00,11.0,6.0,-100.00,West,276,15.0,27.0,78,0.00,,,0.02,0.000000,,2013-04-18 09:32:00,
2013-04-18 03:42:00,11.0,6.0,-100.00,West,276,15.0,27.0,78,0.00,,,0.02,0.000000,,2013-04-18 09:42:00,
2013-04-18 04:12:00,10.0,4.0,-100.00,WNW,291,12.0,25.0,75,0.00,,,-99.99,0.000000,,2013-04-18 10:12:00,
2013-04-18 04:23:00,10.0,4.0,-100.00,WNW,291,12.0,25.0,75,0.00,,,-99.99,0.000000,,2013-04-18 10:23:00,
2013-04-18 04:32:00,10.0,4.0,-100.00,WNW,291,12.0,25.0,75,0.00,,,-99.99,0.000000,,2013-04-18 10:32:00,
2013-04-18 04:42:00,10.0,4.0,-100.00,WNW,291,12.0,25.0,75,0.00,,,-99.99,0.000000,,2013-04-18 10:42:00,
2013-04-18 05:12:00,9.0,5.0,-100.00,South,180,9.0,21.0,83,0.00,,,0.02,0.000000,,2013-04-18 11:12:00,
2013-04-18 05:22:00,9.0,5.0,-100.00,South,180,9.0,21.0,83,0.00,,,0.02,0.000000,,2013-04-18 11:22:00,
2013-04-18 05:32:00,9.0,5.0,-100.00,South,180,9.0,21.0,83,0.00,,,0.02,0.000000,,2013-04-18 11:32:00,
2013-04-18 05:42:00,9.0,5.0,-100.00,South,180,9.0,21.0,83,0.00,,,0.02,0.000000,,2013-04-18 11:42:00,
2013-04-18 06:12:00,8.0,5.0,-100.00,SE,129,6.0,16.0,86,0.00,,,0.02,0.000000,,2013-04-18 12:12:00,
2013-04-18 06:22:00,8.0,5.0,-100.00,SE,129,6.0,16.0,86,0.00,,,0.02,0.000000,,2013-04-18 12:22:00,
2013-04-18 06:32:00,8.0,5.0,-100.00,SE,129,6.0,16.0,86,0.00,,,0.02,0.000000,,2013-04-18 12:32:00,
2013-04-18 06:42:00,8.0,5.0,-100.00,SE,129,6.0,16.0,86,0.00,,,0.02,0.000000,,2013-04-18 12:42:00,
2013-04-18 07:12:00,9.0,4.0,-100.00,WNW,282,8.0,18.0,80,0.00,,,0.02,3.000000,,2013-04-18 13:12:00,
2013-04-18 07:22:00,9.0,4.0,-100.00,WNW,282,8.0,18.0,80,0.00,,,0.02,3.000000,,2013-04-18 13:22:00,
2013-04-18 07:32:00,9.0,4.0,-100.00,WNW,282,8.0,18.0,80,0.00,,,0.02,3.000000,,2013-04-18 13:32:00,
2013-04-18 07:42:00,9.0,4.0,-100.00,WNW,282,8.0,18.0,80,0.00,,,0.02,3.000000,,2013-04-18 13:42:00,
2013-04-18 08:12:00,13.0,6.0,-100.00,WNW,291,8.0,17.0,72,0.00,,,0.02,174.000000,,2013-04-18 14:12:00,
2013-04-18 08:22:00,13.0,6.0,-100.00,WNW,291,8.0,17.0,72,0.00,,,0.02,174.000000,,2013-04-18 14:22:00,
2013-04-18 08:32:00,13.0,6.0,-100.00,WNW,291,8.0,17.0,72,0.00,,,0.02,174.000000,,2013-04-18 14:32:00,
2013-04-18 08:42:00,13.0,6.0,-100.00,WNW,291,8.0,17.0,72,0.00,,,0.02,174.000000,,2013-04-18 14:42:00,
2013-04-18 09:12:00,16.0,7.0,-100.00,WNW,296,10.0,20.0,67,0.00,,,0.02,437.000000,,2013-04-18 15:12:00,
2013-04-18 09:22:00,16.0,7.0,-100.00,WNW,296,10.0,20.0,67,0.00,,,0.02,437.000000,,2013-04-18 15:22:00,
2013-04-18 09:33:00,16.0,7.0,-100.00,WNW,296,10.0,20.0,67,0.00,,,0.02,437.000000,,2013-04-18 15:33:00,
2013-04-18 09:42:00,16.0,7.0,-100.00,WNW,296,10.0,20.0,67,0.00,,,0.02,437.000000,,2013-04-18 15:42:00,
2013-04-18 10:13:00,17.0,6.0,-100.00,WNW,298,13.0,22.0,60,0.00,,,0.02,717.000000,,2013-04-18 16:13:00,
2013-04-18 10:22:00,17.0,6.0,-100.00,WNW,298,13.0,22.0,60,0.00,,,0.02,717.000000,,2013-04-18 16:22:00,
2013-04-18 10:33:00,17.0,6.0,-100.00,WNW,298,13.0,22.0,60,0.00,,,0.02,717.000000,,2013-04-18 16:33:00,
2013-04-18 10:42:00,17.0,6.0,-100.00,WNW,298,13.0,22.0,60,0.00,,,0.02,717.000000,,2013-04-18 16:42:00,
2013-04-18 11:12:00,18.0,7.0,-100.00,WNW,296,11.0,25.0,61,0.00,,,0.02,581.000000,,2013-04-18 17:12:00,
2013-04-18 11:22:00,18.0,7.0,-100.00,WNW,296,11.0,25.0,61,0.00,,,0.02,581.000000,,2013-04-18 17:22:00,
2013-04-18 11:33:00,18.0,7.0,-100.00,WNW,296,11.0,25.0,61,0.00,,,0.02,581.000000,,2013-04-18 17:33:00,
2013-04-18 11:42:00,18.0,7.0,-100.00,WNW,296,11.0,25.0,61,0.00,,,0.02,581.000000,,2013-04-18 17:42:00,
2013-04-18 12:12:00,21.0,7.0,-100.00,WNW,295,13.0,23.0,55,0.00,,,0.02,1072.000000,,2013-04-18 18:12:00,
2013-04-18 12:22:00,21.0,7.0,-100.00,WNW,295,13.0,23.0,55,0.00,,,0.02,1072.000000,,2013-04-18 18:22:00,
2013-04-18 12:32:00,21.0,7.0,-100.00,WNW,295,13.0,23.0,55,0.00,,,0.02,1072.000000,,2013-04-18 18:32:00,
2013-04-18 12:42:00,21.0,7.0,-100.00,WNW,295,13.0,23.0,55,0.00,,,0.02,1072.000000,,2013-04-18 18:42:00,
2013-04-18 13:12:00,23.0,10.0,-100.00,WNW,290,13.0,26.0,56,0.00,,,0.02,1210.000000,,2013-04-18 19:12:00,
2013-04-18 13:22:00,23.0,10.0,-100.00,WNW,290,13.0,26.0,56,0.00,,,0.02,1210.000000,,2013-04-18 19:22:00,
2013-04-18 13:32:00,23.0,10.0,-100.00,WNW,290,13.0,26.0,56,0.00,,,0.02,1210.000000,,2013-04-18 19:32:00,
2013-04-18 13:42:00,23.0,10.0,-100.00,WNW,290,13.0,26.0,56,0.00,,,0.02,1210.000000,,2013-04-18 19:42:00,
2013-04-18 14:12:00,20.0,7.0,-100.00,South,187,14.0,27.0,56,0.00,,,0.02,865.000000,,2013-04-18 20:12:00,
2013-04-18 14:22:00,20.0,7.0,-100.00,South,187,14.0,27.0,56,0.00,,,0.02,865.000000,,2013-04-18 20:22:00,
2013-04-18 14:32:00,20.0,7.0,-100.00,South,187,14.0,27.0,56,0.00,,,0.02,865.000000,,2013-04-18 20:32:00,
2013-04-18 14:42:00,20.0,7.0,-100.00,South,187,14.0,27.0,56,0.00,,,0.02,865.000000,,2013-04-18 20:42:00,
2013-04-18 15:12:00,22.0,11.0,-100.00,WNW,302,14.0,28.0,61,0.00,,,0.02,990.000000,,2013-04-18 21:12:00,
2013-04-18 15:22:00,22.0,11.0,-100.00,WNW,302,14.0,28.0,61,0.00,,,0.02,990.000000,,2013-04-18 21:22:00,
2013-04-18 15:32:00,22.0,11.0,-100.00,WNW,302,14.0,28.0,61,0.00,,,0.02,990.000000,,2013-04-18 21:32:00,
2013-04-18 15:43:00,22.0,11.0,-100.00,WNW,302,14.0,28.0,61,0.00,,,0.02,990.000000,,2013-04-18 21:43:00,
2013-04-18 16:12:00,20.0,14.0,-100.00,WNW,297,11.0,31.0,76,0.00,,,0.01,775.000000,,2013-04-18 22:12:00,
2013-04-18 16:22:00,20.0,14.0,-100.00,WNW,297,11.0,31.0,76,0.00,,,0.01,775.000000,,2013-04-18 22:22:00,
2013-04-18 16:32:00,20.0,14.0,-100.00,WNW,297,11.0,31.0,76,0.00,,,0.01,775.000000,,2013-04-18 22:32:00,
2013-04-18 16:42:00,20.0,14.0,-100.00,WNW,297,11.0,31.0,76,0.00,,,0.01,775.000000,,2013-04-18 22:42:00,
2013-04-18 17:11:00,21.0,13.0,-100.00,WNW,288,12.0,22.0,72,0.00,,,0.01,694.000000,,2013-04-18 23:11:00,
2013-04-18 17:21:00,21.0,13.0,-100.00,WNW,288,12.0,22.0,72,0.00,,,0.01,694.000000,,2013-04-18 23:21:00,
2013-04-18 17:32:00,21.0,13.0,-100.00,WNW,288,12.0,22.0,72,0.00,,,0.01,694.000000,,2013-04-18 23:32:00,
2013-04-18 17:42:00,21.0,13.0,-100.00,WNW,288,12.0,22.0,72,0.00,,,0.01,694.000000,,2013-04-18 23:42:00,
2013-04-18 18:12:00,21.0,12.0,-100.00,West,273,15.0,23.0,69,0.00,,,0.01,498.000000,,2013-04-19 00:12:00,
2013-04-18 18:21:00,21.0,12.0,-100.00,West,273,15.0,23.0,69,0.00,,,0.01,498.000000,,2013-04-19 00:21:00,
2013-04-18 18:32:00,21.0,12.0,-100.00,West,273,15.0,23.0,69,0.00,,,0.01,498.000000,,2013-04-19 00:32:00,
2013-04-18 18:42:00,21.0,12.0,-100.00,West,273,15.0,23.0,69,0.00,,,0.01,498.000000,,2013-04-19 00:42:00,
2013-04-18 19:11:00,18.0,11.0,-100.00,WNW,285,12.0,27.0,74,0.00,,,0.00,211.000000,,2013-04-19 01:11:00,
2013-04-18 19:21:00,18.0,11.0,-100.00,WNW,285,12.0,27.0,74,0.00,,,0.00,211.000000,,2013-04-19 01:21:00,
2013-04-18 19:31:00,18.0,11.0,-100.00,WNW,285,12.0,27.0,74,0.00,,,0.00,211.000000,,2013-04-19 01:31:00,
2013-04-18 19:42:00,18.0,11.0,-100.00,WNW,285,12.0,27.0,74,0.00,,,0.00,211.000000,,2013-04-19 01:42:00,
2013-04-18 20:11:00,16.0,10.0,-100.00,West,274,12.0,24.0,77,0.00,,,0.00,40.000000,,2013-04-19 02:11:00,
2013-04-18 20:21:00,16.0,10.0,-100.00,West,274,12.0,24.0,77,0.00,,,0.00,40.000000,,2013-04-19 02:21:00,
2013-04-18 20:32:00,16.0,10.0,-100.00,West,274,12.0,24.0,77,0.00,,,0.00,40.000000,,2013-04-19 02:32:00,
2013-04-18 20:42:00,16.0,10.0,-100.00,West,274,12.0,24.0,77,0.00,,,0.00,40.000000,,2013-04-19 02:42:00,
2013-04-18 21:11:00,16.0,9.0,-100.00,West,268,12.0,21.0,73,0.00,,,0.00,0.000000,,2013-04-19 03:11:00,
2013-04-18 21:21:00,16.0,9.0,-100.00,West,268,12.0,21.0,73,0.00,,,0.00,0.000000,,2013-04-19 03:21:00,
2013-04-18 21:32:00,16.0,9.0,-100.00,West,268,12.0,21.0,73,0.00,,,0.00,0.000000,,2013-04-19 03:32:00,
2013-04-18 21:43:00,16.0,9.0,-100.00,West,268,12.0,21.0,73,0.00,,,0.00,0.000000,,2013-04-19 03:43:00,
2013-04-18 22:13:00,15.0,8.0,-100.00,West,280,9.0,19.0,72,0.00,,,0.00,0.000000,,2013-04-19 04:13:00,
2013-04-18 22:23:00,15.0,8.0,-100.00,West,280,9.0,19.0,72,0.00,,,0.00,0.000000,,2013-04-19 04:23:00,
2013-04-18 22:32:00,15.0,8.0,-100.00,West,280,9.0,19.0,72,0.00,,,0.00,0.000000,,2013-04-19 04:32:00,
2013-04-18 22:43:00,15.0,8.0,-100.00,West,280,9.0,19.0,72,0.00,,,0.00,0.000000,,2013-04-19 04:43:00,
2013-04-18 23:11:00,15.0,8.0,-100.00,WSW,243,8.0,16.0,72,0.00,,,0.00,0.000000,,2013-04-19 05:11:00,
2013-04-18 23:22:00,15.0,8.0,-100.00,WSW,243,8.0,16.0,72,0.00,,,0.00,0.000000,,2013-04-19 05:22:00,
2013-04-18 23:32:00,15.0,8.0,-100.00,WSW,243,8.0,16.0,72,0.00,,,0.00,0.000000,,2013-04-19 05:32:00,
2013-04-18 23:42:00,15.0,8.0,-100.00,WSW,243,8.0,16.0,72,0.00,,,0.00,0.000000,,2013-04-19 05:42:00,